Location: Stara Lesna
(49.1528°N, 20.2911°E)
Time: 09:13:42
(UTC+02:00)

Cosmos 1782 - Pass Details

Date: 21 September 2019
Orbit: 539 x 551 km, 82.5° (Epoch: 18 October)

Event Time Altitude Azimuth Distance (km) Brightness Sun altitude
Exits shadow 03:20:32 37° 50° (NE) 859 4.2 -28.3°
Drops below altitude 10° 03:23:18 10° 21° (NNE) 1,813 6.2 -27.9°
Sets 03:25:31 0° 15° (NNE) 2,711 7.1 -27.7°
